Time,TemperatureF,DewpointF,PressureIn,WindDirection,WindDirectionDegrees,WindSpeedMPH,WindSpeedGustMPH,Humidity,HourlyPrecipIn,Conditions,Clouds,dailyrainin,SoftwareType,DateUTC
2013-09-18 00:01:00,44.6,41.3,0.00,SSE,166,0.0,0.0,88,0.00,,---,0.00,VWS V13.01,2013-09-18 04:01:00,
2013-09-18 00:06:00,44.4,41.4,0.00,SSE,166,0.0,0.0,89,0.00,,---,0.00,VWS V13.01,2013-09-18 04:06:00,
2013-09-18 00:11:00,44.2,41.2,0.00,SSE,166,0.0,0.0,89,0.00,,---,0.00,VWS V13.01,2013-09-18 04:11:00,
2013-09-18 00:16:00,44.2,41.2,0.00,SSE,166,0.0,0.0,89,0.00,,---,0.00,VWS V13.01,2013-09-18 04:16:00,
2013-09-18 00:21:00,44.1,41.0,0.00,SSE,166,0.0,0.0,89,0.00,,---,0.00,VWS V13.01,2013-09-18 04:21:00,
2013-09-18 00:26:00,44.1,41.3,0.00,SSE,166,0.0,0.0,90,0.00,,---,0.00,VWS V13.01,2013-09-18 04:26:00,
2013-09-18 00:31:00,43.9,41.1,0.00,SSE,166,0.0,0.0,90,0.00,,---,0.00,VWS V13.01,2013-09-18 04:31:00,
2013-09-18 00:36:00,43.7,41.0,0.00,SSE,166,0.0,0.0,90,0.00,,---,0.00,VWS V13.01,2013-09-18 04:36:00,
2013-09-18 00:41:00,43.7,41.0,0.00,SSE,166,0.0,0.0,90,0.00,,---,0.00,VWS V13.01,2013-09-18 04:41:00,
2013-09-18 00:46:00,43.5,40.8,0.00,SSE,166,0.0,0.0,90,0.00,,---,0.00,VWS V13.01,2013-09-18 04:46:00,
2013-09-18 00:51:00,43.5,40.8,0.00,SSE,166,0.0,0.0,90,0.00,,---,0.00,VWS V13.01,2013-09-18 04:51:00,
2013-09-18 00:56:00,43.5,40.8,0.00,SSE,166,0.0,0.0,90,0.00,,---,0.00,VWS V13.01,2013-09-18 04:56:00,
2013-09-18 01:01:00,43.3,40.6,0.00,SSE,166,0.0,0.0,90,0.00,,---,0.00,VWS V13.01,2013-09-18 05:01:00,
2013-09-18 01:06:00,43.3,40.9,0.00,SSE,166,0.0,0.0,91,0.00,,---,0.00,VWS V13.01,2013-09-18 05:06:00,
2013-09-18 01:11:00,43.3,40.9,0.00,SSE,166,0.0,0.0,91,0.00,,---,0.00,VWS V13.01,2013-09-18 05:11:00,
2013-09-18 01:16:00,43.2,40.7,0.00,SSE,166,0.0,0.0,91,0.00,,---,0.00,VWS V13.01,2013-09-18 05:16:00,
2013-09-18 01:21:00,43.2,40.7,0.00,SSE,166,0.0,0.0,91,0.00,,---,0.00,VWS V13.01,2013-09-18 05:21:00,
2013-09-18 01:26:00,43.0,40.5,0.00,SSE,166,0.0,0.0,91,0.00,,---,0.00,VWS V13.01,2013-09-18 05:26:00,
2013-09-18 01:31:00,43.0,40.5,0.00,SSE,166,0.0,0.0,91,0.00,,---,0.00,VWS V13.01,2013-09-18 05:31:00,
2013-09-18 01:36:00,43.0,40.8,0.00,SSE,166,0.0,0.0,92,0.00,,---,0.00,VWS V13.01,2013-09-18 05:36:00,
2013-09-18 01:41:00,42.8,40.6,0.00,SSE,166,0.0,0.0,92,0.00,,---,0.00,VWS V13.01,2013-09-18 05:41:00,
2013-09-18 01:46:00,42.8,40.6,0.00,SSE,166,0.0,0.0,92,0.00,,---,0.00,VWS V13.01,2013-09-18 05:46:00,
2013-09-18 01:51:00,42.8,40.6,0.00,SSE,166,0.0,0.0,92,0.00,,---,0.00,VWS V13.01,2013-09-18 05:51:00,
2013-09-18 01:56:00,42.6,40.5,0.00,SSE,166,0.0,0.0,92,0.00,,---,0.00,VWS V13.01,2013-09-18 05:56:00,
2013-09-18 02:01:00,42.8,40.6,0.00,SSE,166,0.0,0.0,92,0.00,,---,0.00,VWS V13.01,2013-09-18 06:01:00,
2013-09-18 02:06:00,42.8,40.9,0.00,SSE,166,0.0,0.0,93,0.00,,---,0.00,VWS V13.01,2013-09-18 06:06:00,
2013-09-18 02:11:00,42.8,40.9,0.00,SSE,166,0.0,0.0,93,0.00,,---,0.00,VWS V13.01,2013-09-18 06:11:00,
2013-09-18 02:16:00,42.8,40.9,0.00,SSE,166,0.0,0.0,93,0.00,,---,0.00,VWS V13.01,2013-09-18 06:16:00,
2013-09-18 02:21:00,42.4,40.8,0.00,SSE,166,0.0,0.0,94,0.00,,---,0.00,VWS V13.01,2013-09-18 06:21:00,
2013-09-18 02:26:00,42.4,40.8,0.00,SSE,166,0.0,0.0,94,0.00,,---,0.00,VWS V13.01,2013-09-18 06:26:00,
2013-09-18 02:31:00,42.4,40.8,0.00,SSE,166,0.0,0.0,94,0.00,,---,0.00,VWS V13.01,2013-09-18 06:31:00,
2013-09-18 02:36:00,42.4,40.8,0.00,SSE,166,0.0,0.0,94,0.00,,---,0.00,VWS V13.01,2013-09-18 06:36:00,
2013-09-18 02:41:00,42.3,40.7,0.00,SSE,166,0.0,0.0,94,0.00,,---,0.00,VWS V13.01,2013-09-18 06:41:00,
2013-09-18 02:45:00,42.3,40.7,0.00,SSE,166,0.0,0.0,94,0.00,,---,0.00,VWS V13.01,2013-09-18 06:45:00,
2013-09-18 02:50:00,42.1,40.5,0.00,SSE,166,0.0,0.0,94,0.00,,---,0.00,VWS V13.01,2013-09-18 06:50:00,
2013-09-18 02:55:00,42.1,40.5,0.00,SSE,166,0.0,0.0,94,0.00,,---,0.00,VWS V13.01,2013-09-18 06:55:00,
2013-09-18 03:00:00,42.1,40.8,0.00,SSE,166,0.0,0.0,95,0.00,,---,0.00,VWS V13.01,2013-09-18 07:00:00,
2013-09-18 03:05:00,42.1,40.8,0.00,SSE,166,0.0,0.0,95,0.00,,---,0.00,VWS V13.01,2013-09-18 07:05:00,
2013-09-18 03:10:00,41.9,40.6,0.00,SSE,166,0.0,0.0,95,0.00,,---,0.00,VWS V13.01,2013-09-18 07:10:00,
2013-09-18 03:15:00,41.9,40.6,0.00,SSE,166,0.0,0.0,95,0.00,,---,0.00,VWS V13.01,2013-09-18 07:15:00,
2013-09-18 03:20:00,41.9,40.6,0.00,SSE,166,0.0,0.0,95,0.00,,---,0.00,VWS V13.01,2013-09-18 07:20:00,
2013-09-18 03:25:00,41.9,40.6,0.00,SSE,166,0.0,0.0,95,0.00,,---,0.00,VWS V13.01,2013-09-18 07:25:00,
2013-09-18 03:30:00,41.9,40.6,0.00,SSE,166,0.0,0.0,95,0.00,,---,0.00,VWS V13.01,2013-09-18 07:30:00,
2013-09-18 03:35:00,41.9,40.6,0.00,SSE,166,0.0,0.0,95,0.00,,---,0.00,VWS V13.01,2013-09-18 07:35:00,
2013-09-18 03:40:00,42.1,41.0,0.00,SSE,166,0.0,0.0,96,0.00,,---,0.00,VWS V13.01,2013-09-18 07:40:00,
2013-09-18 03:45:00,42.1,41.0,0.00,SSE,166,0.0,0.0,96,0.00,,---,0.00,VWS V13.01,2013-09-18 07:45:00,
2013-09-18 03:50:00,41.9,40.8,0.00,SSE,166,0.0,0.0,96,0.00,,---,0.00,VWS V13.01,2013-09-18 07:50:00,
2013-09-18 03:55:00,41.7,40.7,0.00,SSE,166,0.0,0.0,96,0.00,,---,0.00,VWS V13.01,2013-09-18 07:55:00,
2013-09-18 04:00:00,41.7,40.7,0.00,SSE,166,0.0,0.0,96,0.00,,---,0.00,VWS V13.01,2013-09-18 08:00:00,
2013-09-18 04:05:00,41.7,40.7,0.00,SSE,166,0.0,0.0,96,0.00,,---,0.00,VWS V13.01,2013-09-18 08:05:00,
2013-09-18 04:10:00,41.5,40.5,0.00,SSE,166,0.0,0.0,96,0.00,,---,0.00,VWS V13.01,2013-09-18 08:10:00,
2013-09-18 04:15:00,41.5,40.5,0.00,SSE,166,0.0,0.0,96,0.00,,---,0.00,VWS V13.01,2013-09-18 08:15:00,
2013-09-18 04:20:00,41.5,40.5,0.00,SSE,166,0.0,0.0,96,0.00,,---,0.00,VWS V13.01,2013-09-18 08:20:00,
2013-09-18 04:25:00,41.5,40.5,0.00,SSE,166,0.0,0.0,96,0.00,,---,0.00,VWS V13.01,2013-09-18 08:25:00,
2013-09-18 04:30:00,41.7,40.9,0.00,SSE,158,0.0,0.0,97,0.00,,---,0.00,VWS V13.01,2013-09-18 08:30:00,
2013-09-18 04:35:00,42.1,41.3,0.00,SSE,156,0.0,0.0,97,0.00,,---,0.00,VWS V13.01,2013-09-18 08:35:00,
2013-09-18 04:40:00,42.1,41.3,0.00,SSE,156,0.0,0.0,97,0.00,,---,0.00,VWS V13.01,2013-09-18 08:40:00,
2013-09-18 04:45:00,42.3,41.5,0.00,ESE,120,0.0,0.0,97,0.00,,---,0.00,VWS V13.01,2013-09-18 08:45:00,
2013-09-18 04:50:00,42.3,41.5,0.00,ESE,120,0.0,0.0,97,0.00,,---,0.00,VWS V13.01,2013-09-18 08:50:00,
2013-09-18 04:55:00,42.3,41.7,0.00,ESE,119,0.0,0.0,98,0.00,,---,0.00,VWS V13.01,2013-09-18 08:55:00,
2013-09-18 05:01:00,42.3,41.7,0.00,ESE,119,0.0,0.0,98,0.00,,---,0.00,VWS V13.01,2013-09-18 09:01:00,
2013-09-18 05:06:00,42.3,41.7,0.00,ESE,119,0.0,0.0,98,0.00,,---,0.00,VWS V13.01,2013-09-18 09:06:00,
2013-09-18 05:11:00,42.1,41.6,0.00,ESE,119,0.0,0.0,98,0.00,,---,0.00,VWS V13.01,2013-09-18 09:11:00,
2013-09-18 05:16:00,42.1,41.6,0.00,SE,128,0.0,0.0,98,0.00,,---,0.00,VWS V13.01,2013-09-18 09:16:00,
2013-09-18 05:21:00,42.1,41.6,0.00,SE,128,0.0,0.0,98,0.00,,---,0.00,VWS V13.01,2013-09-18 09:21:00,
2013-09-18 05:26:00,42.1,41.6,0.00,SE,128,0.0,0.0,98,0.00,,---,0.00,VWS V13.01,2013-09-18 09:26:00,
2013-09-18 05:31:00,42.3,41.7,0.00,SE,128,0.0,0.0,98,0.00,,---,0.00,VWS V13.01,2013-09-18 09:31:00,
2013-09-18 05:36:00,42.1,41.6,0.00,SE,128,0.0,0.0,98,0.00,,---,0.00,VWS V13.01,2013-09-18 09:36:00,
2013-09-18 05:41:00,41.9,41.4,0.00,SE,128,0.0,0.0,98,0.00,,---,0.00,VWS V13.01,2013-09-18 09:41:00,
2013-09-18 05:46:00,41.9,41.4,0.00,SE,128,0.0,0.0,98,0.00,,---,0.00,VWS V13.01,2013-09-18 09:46:00,
2013-09-18 05:51:00,41.7,41.2,0.00,SE,128,0.0,0.0,98,0.00,,---,0.00,VWS V13.01,2013-09-18 09:51:00,
2013-09-18 05:56:00,41.7,41.2,0.00,SE,128,0.0,0.0,98,0.00,,---,0.00,VWS V13.01,2013-09-18 09:56:00,
2013-09-18 06:01:00,41.7,41.2,0.00,SE,128,0.0,0.0,98,0.00,,---,0.00,VWS V13.01,2013-09-18 10:01:00,
2013-09-18 06:06:00,41.5,41.0,0.00,SE,128,0.0,0.0,98,0.00,,---,0.00,VWS V13.01,2013-09-18 10:06:00,
2013-09-18 06:11:00,41.5,41.0,0.00,SE,128,0.0,0.0,98,0.00,,---,0.00,VWS V13.01,2013-09-18 10:11:00,
2013-09-18 06:16:00,41.4,41.1,0.00,SE,128,0.0,0.0,99,0.00,,---,0.00,VWS V13.01,2013-09-18 10:16:00,
2013-09-18 06:21:00,41.5,41.3,0.00,SE,128,0.0,0.0,99,0.00,,---,0.00,VWS V13.01,2013-09-18 10:21:00,
2013-09-18 06:26:00,41.7,41.5,0.00,SE,128,0.0,0.0,99,0.00,,---,0.00,VWS V13.01,2013-09-18 10:26:00,
2013-09-18 06:31:00,41.7,41.5,0.00,SE,128,0.0,0.0,99,0.00,,---,0.00,VWS V13.01,2013-09-18 10:31:00,
2013-09-18 06:36:00,41.9,41.6,0.00,SE,127,0.0,0.0,99,0.00,,---,0.00,VWS V13.01,2013-09-18 10:36:00,
2013-09-18 06:41:00,41.9,41.6,0.00,ENE,75,0.0,0.0,99,0.00,,---,0.00,VWS V13.01,2013-09-18 10:41:00,
2013-09-18 06:46:00,42.1,41.8,0.00,ENE,75,0.0,0.0,99,0.00,,---,0.00,VWS V13.01,2013-09-18 10:46:00,
2013-09-18 06:51:00,42.1,41.8,0.00,ENE,75,0.0,0.0,99,0.00,,---,0.00,VWS V13.01,2013-09-18 10:51:00,
2013-09-18 06:56:00,42.1,41.8,0.00,ENE,75,0.0,0.0,99,0.00,,---,0.00,VWS V13.01,2013-09-18 10:56:00,
2013-09-18 07:01:00,42.1,41.8,0.00,ENE,75,0.0,0.0,99,0.00,,---,0.00,VWS V13.01,2013-09-18 11:01:00,
2013-09-18 07:06:00,42.1,41.8,0.00,East,81,0.0,0.0,99,0.00,,---,0.00,VWS V13.01,2013-09-18 11:06:00,
2013-09-18 07:11:00,42.1,42.1,0.00,ESE,119,0.0,0.0,100,0.00,,---,0.00,VWS V13.01,2013-09-18 11:11:00,
2013-09-18 07:16:00,42.3,42.3,0.00,ESE,120,0.0,0.0,100,0.00,,---,0.00,VWS V13.01,2013-09-18 11:16:00,
2013-09-18 07:21:00,42.3,42.3,0.00,ESE,115,0.0,0.0,100,0.00,,---,0.00,VWS V13.01,2013-09-18 11:21:00,
2013-09-18 07:26:00,42.4,42.4,0.00,ESE,112,0.0,0.0,100,0.00,,---,0.00,VWS V13.01,2013-09-18 11:26:00,
2013-09-18 07:31:00,42.6,42.6,0.00,SE,127,0.0,0.0,100,0.00,,---,0.00,VWS V13.01,2013-09-18 11:31:00,
2013-09-18 07:36:00,43.0,43.0,0.00,ESE,120,0.0,0.0,100,0.00,,---,0.00,VWS V13.01,2013-09-18 11:36:00,
2013-09-18 07:41:00,43.3,43.3,0.00,ESE,120,0.0,0.0,100,0.00,,---,0.00,VWS V13.01,2013-09-18 11:41:00,
2013-09-18 07:46:00,43.7,43.4,0.00,SE,132,0.0,0.0,99,0.00,,---,0.00,VWS V13.01,2013-09-18 11:46:00,
2013-09-18 07:51:00,44.1,43.8,0.00,ESE,113,0.0,0.0,99,0.00,,---,0.00,VWS V13.01,2013-09-18 11:51:00,
2013-09-18 07:56:00,44.2,44.0,0.00,ESE,120,0.0,0.0,99,0.00,,---,0.00,VWS V13.01,2013-09-18 11:56:00,
2013-09-18 08:01:00,44.6,44.1,0.00,ESE,122,0.0,0.0,98,0.00,,---,0.00,VWS V13.01,2013-09-18 12:01:00,
2013-09-18 08:05:00,45.1,44.6,0.00,SE,136,0.0,0.0,98,0.00,,---,0.00,VWS V13.01,2013-09-18 12:05:00,
2013-09-18 08:11:00,45.5,45.0,0.00,ESE,115,0.0,0.0,98,0.00,,---,0.00,VWS V13.01,2013-09-18 12:11:00,
2013-09-18 08:16:00,45.9,45.3,0.00,SE,139,0.0,0.0,98,0.00,,---,0.00,VWS V13.01,2013-09-18 12:16:00,
2013-09-18 08:21:00,46.2,45.4,0.00,SSE,147,0.0,0.0,97,0.00,,---,0.00,VWS V13.01,2013-09-18 12:21:00,
2013-09-18 08:26:00,46.8,46.0,0.00,SSE,158,0.0,5.6,97,0.00,,---,0.00,VWS V13.01,2013-09-18 12:26:00,
2013-09-18 08:31:00,47.1,46.0,0.00,ESE,113,0.0,5.6,96,0.00,,---,0.00,VWS V13.01,2013-09-18 12:31:00,
2013-09-18 08:36:00,47.7,46.6,0.00,ESE,118,0.0,4.8,96,0.00,,---,0.00,VWS V13.01,2013-09-18 12:36:00,
2013-09-18 08:41:00,48.0,46.9,0.00,ESE,108,0.0,0.0,96,0.00,,---,0.00,VWS V13.01,2013-09-18 12:41:00,
2013-09-18 08:46:00,48.7,47.4,0.00,ESE,119,4.0,4.8,95,0.00,,---,0.00,VWS V13.01,2013-09-18 12:46:00,
2013-09-18 08:51:00,48.9,47.3,0.00,SE,130,0.0,5.6,94,0.00,,---,0.00,VWS V13.01,2013-09-18 12:51:00,
2013-09-18 08:56:00,49.6,48.0,0.00,ESE,119,0.0,0.0,94,0.00,,---,0.00,VWS V13.01,2013-09-18 12:56:00,
2013-09-18 09:01:00,50.0,48.1,0.00,ESE,123,0.0,0.0,93,0.00,,---,0.00,VWS V13.01,2013-09-18 13:01:00,
2013-09-18 09:06:00,50.5,48.3,0.00,ESE,103,0.0,0.0,92,0.00,,---,0.00,VWS V13.01,2013-09-18 13:06:00,
2013-09-18 09:11:00,50.9,48.4,0.00,SE,143,0.0,0.0,91,0.00,,---,0.00,VWS V13.01,2013-09-18 13:11:00,
2013-09-18 09:16:00,51.4,48.6,0.00,SSE,152,0.0,0.0,90,0.00,,---,0.00,VWS V13.01,2013-09-18 13:16:00,
2013-09-18 09:21:00,51.8,48.4,0.00,SE,130,0.0,0.0,88,0.00,,---,0.00,VWS V13.01,2013-09-18 13:21:00,
2013-09-18 09:26:00,52.3,48.9,0.00,SSE,155,0.0,0.0,88,0.00,,---,0.00,VWS V13.01,2013-09-18 13:26:00,
2013-09-18 09:31:00,52.9,49.1,0.00,SE,131,0.0,0.0,87,0.00,,---,0.00,VWS V13.01,2013-09-18 13:31:00,
2013-09-18 09:36:00,53.6,49.2,0.00,ESE,110,0.0,0.0,85,0.00,,---,0.00,VWS V13.01,2013-09-18 13:36:00,
2013-09-18 09:41:00,54.0,49.2,0.00,ESE,111,0.0,0.0,84,0.00,,---,0.00,VWS V13.01,2013-09-18 13:41:00,
2013-09-18 09:46:00,54.7,49.6,0.00,SE,124,0.0,0.0,83,0.00,,---,0.00,VWS V13.01,2013-09-18 13:46:00,
2013-09-18 09:51:00,55.2,49.5,0.00,East,99,4.7,7.2,81,0.00,,---,0.00,VWS V13.01,2013-09-18 13:51:00,
2013-09-18 09:56:00,55.6,49.5,0.00,SE,126,0.0,0.0,80,0.00,,---,0.00,VWS V13.01,2013-09-18 13:56:00,
2013-09-18 10:01:00,56.1,49.7,0.00,SSE,166,0.0,0.0,79,0.00,,---,0.00,VWS V13.01,2013-09-18 14:01:00,
2013-09-18 10:06:00,56.7,49.5,0.00,ESE,108,0.0,6.4,77,0.00,,---,0.00,VWS V13.01,2013-09-18 14:06:00,
2013-09-18 10:11:00,57.0,49.5,0.00,SE,135,0.0,6.4,76,0.00,,---,0.00,VWS V13.01,2013-09-18 14:11:00,
2013-09-18 10:16:00,57.4,49.2,0.00,North,357,0.0,0.0,74,0.00,,---,0.00,VWS V13.01,2013-09-18 14:16:00,
2013-09-18 10:21:00,57.9,49.3,0.00,SSE,167,0.0,7.2,73,0.00,,---,0.00,VWS V13.01,2013-09-18 14:21:00,
2013-09-18 10:26:00,58.5,49.1,0.00,ESE,112,0.0,4.8,71,0.00,,---,0.00,VWS V13.01,2013-09-18 14:26:00,
2013-09-18 10:31:00,58.8,48.7,0.00,ESE,120,0.0,0.0,69,0.00,,---,0.00,VWS V13.01,2013-09-18 14:31:00,
2013-09-18 10:36:00,59.7,48.0,0.00,SE,137,4.7,5.6,65,0.00,,---,0.00,VWS V13.01,2013-09-18 14:36:00,
2013-09-18 10:41:00,60.1,47.5,0.00,SE,127,0.0,0.0,63,0.00,,---,0.00,VWS V13.01,2013-09-18 14:41:00,
2013-09-18 10:46:00,60.4,46.9,0.00,SE,146,0.0,6.4,61,0.00,,---,0.00,VWS V13.01,2013-09-18 14:46:00,
2013-09-18 10:51:00,61.0,46.1,0.00,East,99,3.4,8.9,58,0.00,,---,0.00,VWS V13.01,2013-09-18 14:51:00,
2013-09-18 10:56:00,61.3,46.0,0.00,SW,226,0.0,11.3,57,0.00,,---,0.00,VWS V13.01,2013-09-18 14:56:00,
2013-09-18 11:01:00,62.1,46.2,0.00,SSW,202,3.4,9.7,56,0.00,,---,0.00,VWS V13.01,2013-09-18 15:01:00,
2013-09-18 11:06:00,62.6,45.7,0.00,SSE,148,3.4,10.5,54,0.00,,---,0.00,VWS V13.01,2013-09-18 15:06:00,
2013-09-18 11:11:00,63.5,46.6,0.00,West,278,6.0,11.3,54,0.00,,---,0.00,VWS V13.01,2013-09-18 15:11:00,
2013-09-18 11:16:00,64.2,46.8,0.00,SE,134,0.0,5.6,53,0.00,,---,0.00,VWS V13.01,2013-09-18 15:16:00,
2013-09-18 11:21:00,64.9,46.4,0.00,WSW,256,8.7,10.5,51,0.00,,---,0.00,VWS V13.01,2013-09-18 15:21:00,
2013-09-18 11:26:00,66.2,46.0,0.00,SE,126,0.0,5.6,48,0.00,,---,0.00,VWS V13.01,2013-09-18 15:26:00,
2013-09-18 11:31:00,66.9,45.5,0.00,SSE,162,4.0,7.2,46,0.00,,---,0.00,VWS V13.01,2013-09-18 15:31:00,
2013-09-18 11:36:00,68.4,46.2,0.00,SSE,151,3.4,9.7,45,0.00,,---,0.00,VWS V13.01,2013-09-18 15:36:00,
2013-09-18 11:41:00,69.1,46.3,0.00,SE,139,5.4,11.3,44,0.00,,---,0.00,VWS V13.01,2013-09-18 15:41:00,
2013-09-18 11:46:00,70.3,46.8,0.00,WSW,251,0.0,8.1,43,0.00,,---,0.00,VWS V13.01,2013-09-18 15:46:00,
2013-09-18 11:51:00,70.9,47.3,0.00,South,169,4.0,8.9,43,0.00,,---,0.00,VWS V13.01,2013-09-18 15:51:00,
2013-09-18 11:56:00,71.1,47.5,0.00,SE,131,5.4,13.7,43,0.00,,---,0.00,VWS V13.01,2013-09-18 15:56:00,
2013-09-18 12:01:00,71.6,47.3,0.00,SSW,213,0.0,6.4,42,0.00,,---,0.00,VWS V13.01,2013-09-18 16:01:00,
2013-09-18 12:06:00,71.2,47.0,0.00,SSE,151,3.4,7.2,42,0.00,,---,0.00,VWS V13.01,2013-09-18 16:06:00,
2013-09-18 12:11:00,71.8,46.8,0.00,SSE,168,0.0,4.8,41,0.00,,---,0.00,VWS V13.01,2013-09-18 16:11:00,
2013-09-18 12:16:00,72.5,47.5,0.00,SW,221,0.0,14.5,41,0.00,,---,0.00,VWS V13.01,2013-09-18 16:16:00,
2013-09-18 12:21:00,73.6,48.5,0.00,West,261,0.0,7.2,41,0.00,,---,0.00,VWS V13.01,2013-09-18 16:21:00,
2013-09-18 12:26:00,73.6,47.8,0.00,SSE,152,5.4,9.7,40,0.00,,---,0.00,VWS V13.01,2013-09-18 16:26:00,
2013-09-18 12:31:00,72.9,47.8,0.00,SE,140,0.0,9.7,41,0.00,,---,0.00,VWS V13.01,2013-09-18 16:31:00,
2013-09-18 12:36:00,73.0,46.6,0.00,SSE,160,4.0,10.5,39,0.00,,---,0.00,VWS V13.01,2013-09-18 16:36:00,
2013-09-18 12:41:00,72.7,44.9,0.00,SE,127,3.4,9.7,37,0.00,,---,0.00,VWS V13.01,2013-09-18 16:41:00,
2013-09-18 12:46:00,72.9,45.8,0.00,SSE,168,0.0,10.5,38,0.00,,---,0.00,VWS V13.01,2013-09-18 16:46:00,
2013-09-18 12:51:00,73.6,46.4,0.00,SSE,166,4.7,9.7,38,0.00,,---,0.00,VWS V13.01,2013-09-18 16:51:00,
2013-09-18 12:56:00,74.5,46.5,0.00,East,94,5.4,9.7,37,0.00,,---,0.00,VWS V13.01,2013-09-18 16:56:00,
2013-09-18 13:01:00,73.2,44.7,0.00,SE,146,8.1,9.7,36,0.00,,---,0.00,VWS V13.01,2013-09-18 17:01:00,
2013-09-18 13:06:00,74.7,46.7,0.00,SSE,147,3.4,7.2,37,0.00,,---,0.00,VWS V13.01,2013-09-18 17:06:00,
2013-09-18 13:11:00,75.7,46.2,0.00,SW,229,5.4,11.3,35,0.00,,---,0.00,VWS V13.01,2013-09-18 17:11:00,
2013-09-18 13:16:00,74.5,45.1,0.00,ESE,112,8.7,13.7,35,0.00,,---,0.00,VWS V13.01,2013-09-18 17:16:00,
2013-09-18 13:21:00,74.7,46.0,0.00,South,172,5.4,7.2,36,0.00,,---,0.00,VWS V13.01,2013-09-18 17:21:00,
2013-09-18 13:26:00,75.0,45.5,0.00,WNW,297,0.0,6.4,35,0.00,,---,0.00,VWS V13.01,2013-09-18 17:26:00,
2013-09-18 13:31:00,75.6,46.0,0.00,East,92,3.4,10.5,35,0.00,,---,0.00,VWS V13.01,2013-09-18 17:31:00,
2013-09-18 13:36:00,76.1,46.5,0.00,SE,129,6.0,11.3,35,0.00,,---,0.00,VWS V13.01,2013-09-18 17:36:00,
2013-09-18 13:41:00,77.0,47.3,0.00,SE,126,5.4,9.7,35,0.00,,---,0.00,VWS V13.01,2013-09-18 17:41:00,
2013-09-18 13:46:00,77.0,46.5,0.00,SSE,164,5.4,11.3,34,0.00,,---,0.00,VWS V13.01,2013-09-18 17:46:00,
2013-09-18 13:51:00,76.6,47.0,0.00,SE,140,4.0,11.3,35,0.00,,---,0.00,VWS V13.01,2013-09-18 17:51:00,
2013-09-18 13:56:00,75.6,46.0,0.00,SE,141,8.1,13.7,35,0.00,,---,0.00,VWS V13.01,2013-09-18 17:56:00,
2013-09-18 14:01:00,76.6,47.0,0.00,SW,218,0.0,9.7,35,0.00,,---,0.00,VWS V13.01,2013-09-18 18:01:00,
2013-09-18 14:06:00,76.8,47.1,0.00,SE,136,0.0,5.6,35,0.00,,---,0.00,VWS V13.01,2013-09-18 18:06:00,
2013-09-18 14:11:00,77.5,47.0,0.00,WSW,247,4.7,6.4,34,0.00,,---,0.00,VWS V13.01,2013-09-18 18:11:00,
2013-09-18 14:17:00,77.0,46.5,0.00,North,357,0.0,6.4,34,0.00,,---,0.00,VWS V13.01,2013-09-18 18:17:00,
2013-09-18 14:22:00,76.5,46.8,0.00,SW,234,5.4,11.3,35,0.00,,---,0.00,VWS V13.01,2013-09-18 18:22:00,
2013-09-18 14:27:00,77.0,46.5,0.00,SSW,196,0.0,6.4,34,0.00,,---,0.00,VWS V13.01,2013-09-18 18:27:00,
2013-09-18 14:32:00,77.2,46.7,0.00,ESE,105,6.0,14.5,34,0.00,,---,0.00,VWS V13.01,2013-09-18 18:32:00,
2013-09-18 14:37:00,77.0,46.5,0.00,SW,220,0.0,9.7,34,0.00,,---,0.00,VWS V13.01,2013-09-18 18:37:00,
2013-09-18 14:42:00,77.0,46.5,0.00,ESE,117,0.0,10.5,34,0.00,,---,0.00,VWS V13.01,2013-09-18 18:42:00,
2013-09-18 14:47:00,76.6,47.0,0.00,ESE,114,0.0,5.6,35,0.00,,---,0.00,VWS V13.01,2013-09-18 18:47:00,
2013-09-18 14:52:00,76.8,47.1,0.00,SSW,194,0.0,7.2,35,0.00,,---,0.00,VWS V13.01,2013-09-18 18:52:00,
2013-09-18 14:57:00,77.0,46.5,0.00,SE,138,4.7,8.9,34,0.00,,---,0.00,VWS V13.01,2013-09-18 18:57:00,
2013-09-18 15:02:00,76.5,46.8,0.00,West,268,4.7,7.2,35,0.00,,---,0.00,VWS V13.01,2013-09-18 19:02:00,
2013-09-18 15:07:00,77.4,47.6,0.00,WSW,240,4.7,9.7,35,0.00,,---,0.00,VWS V13.01,2013-09-18 19:07:00,
2013-09-18 15:12:00,77.7,47.1,0.00,SE,138,8.1,9.7,34,0.00,,---,0.00,VWS V13.01,2013-09-18 19:12:00,
2013-09-18 15:17:00,77.0,45.7,0.00,SSE,165,0.0,9.7,33,0.00,,---,0.00,VWS V13.01,2013-09-18 19:17:00,
2013-09-18 15:22:00,76.8,46.3,0.00,SSE,157,0.0,0.0,34,0.00,,---,0.00,VWS V13.01,2013-09-18 19:22:00,
2013-09-18 15:27:00,76.6,46.2,0.00,NW,316,0.0,4.8,34,0.00,,---,0.00,VWS V13.01,2013-09-18 19:27:00,
2013-09-18 15:32:00,75.7,45.4,0.00,SSE,150,0.0,4.8,34,0.00,,---,0.00,VWS V13.01,2013-09-18 19:32:00,
2013-09-18 15:37:00,76.3,45.9,0.00,SSE,157,0.0,4.8,34,0.00,,---,0.00,VWS V13.01,2013-09-18 19:37:00,
2013-09-18 15:42:00,76.6,46.2,0.00,SSE,149,6.0,7.2,34,0.00,,---,0.00,VWS V13.01,2013-09-18 19:42:00,
2013-09-18 15:47:00,75.9,45.6,0.00,SSE,162,0.0,7.2,34,0.00,,---,0.00,VWS V13.01,2013-09-18 19:47:00,
2013-09-18 15:52:00,75.6,45.2,0.00,ESE,108,0.0,7.2,34,0.00,,---,0.00,VWS V13.01,2013-09-18 19:52:00,
2013-09-18 15:57:00,75.9,46.3,0.00,West,274,0.0,0.0,35,0.00,,---,0.00,VWS V13.01,2013-09-18 19:57:00,
2013-09-18 16:02:00,76.1,45.7,0.00,West,265,0.0,0.0,34,0.00,,---,0.00,VWS V13.01,2013-09-18 20:02:00,
2013-09-18 16:07:00,75.2,44.9,0.00,NNW,336,4.7,6.4,34,0.00,,---,0.00,VWS V13.01,2013-09-18 20:07:00,
2013-09-18 16:12:00,74.8,45.4,0.00,ESE,118,0.0,0.0,35,0.00,,---,0.00,VWS V13.01,2013-09-18 20:12:00,
2013-09-18 16:17:00,75.6,45.2,0.00,SSE,148,4.0,4.8,34,0.00,,---,0.00,VWS V13.01,2013-09-18 20:17:00,
2013-09-18 16:22:00,74.8,45.4,0.00,West,271,4.7,5.6,35,0.00,,---,0.00,VWS V13.01,2013-09-18 20:22:00,
2013-09-18 16:27:00,75.2,45.7,0.00,West,263,0.0,0.0,35,0.00,,---,0.00,VWS V13.01,2013-09-18 20:27:00,
2013-09-18 16:32:00,75.9,46.3,0.00,SE,140,0.0,0.0,35,0.00,,---,0.00,VWS V13.01,2013-09-18 20:32:00,
2013-09-18 16:38:00,75.9,46.3,0.00,SE,143,0.0,8.9,35,0.00,,---,0.00,VWS V13.01,2013-09-18 20:38:00,
2013-09-18 16:43:00,75.2,44.9,0.00,ESE,117,0.0,7.2,34,0.00,,---,0.00,VWS V13.01,2013-09-18 20:43:00,
2013-09-18 16:48:00,75.4,45.9,0.00,SE,132,4.7,6.4,35,0.00,,---,0.00,VWS V13.01,2013-09-18 20:48:00,
2013-09-18 16:53:00,74.7,45.2,0.00,SSE,157,0.0,6.4,35,0.00,,---,0.00,VWS V13.01,2013-09-18 20:53:00,
2013-09-18 16:58:00,75.0,45.5,0.00,ESE,114,0.0,0.0,35,0.00,,---,0.00,VWS V13.01,2013-09-18 20:58:00,
2013-09-18 17:03:00,74.5,44.3,0.00,West,270,0.0,0.0,34,0.00,,---,0.00,VWS V13.01,2013-09-18 21:03:00,
2013-09-18 17:08:00,73.6,43.5,0.00,SSE,152,0.0,0.0,34,0.00,,---,0.00,VWS V13.01,2013-09-18 21:08:00,
2013-09-18 17:13:00,73.9,44.6,0.00,SE,124,0.0,0.0,35,0.00,,---,0.00,VWS V13.01,2013-09-18 21:13:00,
2013-09-18 17:18:00,74.1,44.8,0.00,West,264,0.0,0.0,35,0.00,,---,0.00,VWS V13.01,2013-09-18 21:18:00,
2013-09-18 17:23:00,74.1,44.8,0.00,West,277,0.0,0.0,35,0.00,,---,0.00,VWS V13.01,2013-09-18 21:23:00,
2013-09-18 17:28:00,73.8,44.4,0.00,West,264,0.0,0.0,35,0.00,,---,0.00,VWS V13.01,2013-09-18 21:28:00,
2013-09-18 17:33:00,73.4,44.1,0.00,WNW,283,4.0,5.6,35,0.00,,---,0.00,VWS V13.01,2013-09-18 21:33:00,
2013-09-18 17:38:00,73.2,44.7,0.00,West,271,4.7,5.6,36,0.00,,---,0.00,VWS V13.01,2013-09-18 21:38:00,
2013-09-18 17:43:00,72.9,44.4,0.00,West,272,0.0,0.0,36,0.00,,---,0.00,VWS V13.01,2013-09-18 21:43:00,
2013-09-18 17:48:00,72.7,44.2,0.00,WSW,245,0.0,0.0,36,0.00,,---,0.00,VWS V13.01,2013-09-18 21:48:00,
2013-09-18 17:53:00,72.3,43.9,0.00,West,261,4.0,4.8,36,0.00,,---,0.00,VWS V13.01,2013-09-18 21:53:00,
2013-09-18 17:58:00,71.8,43.4,0.00,WNW,283,0.0,0.0,36,0.00,,---,0.00,VWS V13.01,2013-09-18 21:58:00,
2013-09-18 18:03:00,71.6,43.3,0.00,West,275,0.0,0.0,36,0.00,,---,0.00,VWS V13.01,2013-09-18 22:03:00,
2013-09-18 18:08:00,71.2,43.7,0.00,SW,233,0.0,0.0,37,0.00,,---,0.00,VWS V13.01,2013-09-18 22:08:00,
2013-09-18 18:13:00,70.7,43.2,0.00,WSW,239,0.0,0.0,37,0.00,,---,0.00,VWS V13.01,2013-09-18 22:13:00,
2013-09-18 18:18:00,70.0,43.2,0.00,WSW,239,0.0,0.0,38,0.00,,---,0.00,VWS V13.01,2013-09-18 22:18:00,
2013-09-18 18:23:00,68.4,45.0,0.00,WSW,239,0.0,0.0,43,0.00,,---,0.00,VWS V13.01,2013-09-18 22:23:00,
2013-09-18 18:28:00,67.3,45.2,0.00,WSW,239,0.0,0.0,45,0.00,,---,0.00,VWS V13.01,2013-09-18 22:28:00,
2013-09-18 18:33:00,66.6,45.2,0.00,WSW,239,0.0,0.0,46,0.00,,---,0.00,VWS V13.01,2013-09-18 22:33:00,
2013-09-18 18:38:00,66.0,45.8,0.00,WSW,239,0.0,0.0,48,0.00,,---,0.00,VWS V13.01,2013-09-18 22:38:00,
2013-09-18 18:43:00,65.7,46.0,0.00,WSW,239,0.0,0.0,49,0.00,,---,0.00,VWS V13.01,2013-09-18 22:43:00,
2013-09-18 18:48:00,65.1,46.0,0.00,WSW,239,0.0,0.0,50,0.00,,---,0.00,VWS V13.01,2013-09-18 22:48:00,
2013-09-18 18:53:00,64.4,46.4,0.00,WSW,239,0.0,0.0,52,0.00,,---,0.00,VWS V13.01,2013-09-18 22:53:00,
2013-09-18 18:58:00,63.9,46.9,0.00,WSW,239,0.0,0.0,54,0.00,,---,0.00,VWS V13.01,2013-09-18 22:58:00,
2013-09-18 19:03:00,63.1,46.7,0.00,WSW,239,0.0,0.0,55,0.00,,---,0.00,VWS V13.01,2013-09-18 23:03:00,
2013-09-18 19:08:00,62.6,46.2,0.00,WSW,239,0.0,0.0,55,0.00,,---,0.00,VWS V13.01,2013-09-18 23:08:00,
2013-09-18 19:13:00,62.1,46.7,0.00,WSW,239,0.0,0.0,57,0.00,,---,0.00,VWS V13.01,2013-09-18 23:13:00,
2013-09-18 19:18:00,61.5,46.6,0.00,WSW,239,0.0,0.0,58,0.00,,---,0.00,VWS V13.01,2013-09-18 23:18:00,
2013-09-18 19:23:00,61.0,46.1,0.00,WSW,239,0.0,0.0,58,0.00,,---,0.00,VWS V13.01,2013-09-18 23:23:00,
2013-09-18 19:28:00,60.4,46.5,0.00,WSW,239,0.0,0.0,60,0.00,,---,0.00,VWS V13.01,2013-09-18 23:28:00,
2013-09-18 19:33:00,60.1,46.6,0.00,WSW,238,0.0,0.0,61,0.00,,---,0.00,VWS V13.01,2013-09-18 23:33:00,
2013-09-18 19:39:00,59.7,46.3,0.00,WSW,238,0.0,0.0,61,0.00,,---,0.00,VWS V13.01,2013-09-18 23:39:00,
2013-09-18 19:44:00,59.2,46.2,0.00,WSW,238,0.0,0.0,62,0.00,,---,0.00,VWS V13.01,2013-09-18 23:44:00,
2013-09-18 19:49:00,58.8,46.3,0.00,WSW,238,0.0,0.0,63,0.00,,---,0.00,VWS V13.01,2013-09-18 23:49:00,
2013-09-18 19:54:00,58.5,46.8,0.00,WSW,238,0.0,0.0,65,0.00,,---,0.00,VWS V13.01,2013-09-18 23:54:00,
2013-09-18 19:59:00,58.1,46.4,0.00,WSW,239,0.0,0.0,65,0.00,,---,0.00,VWS V13.01,2013-09-18 23:59:00,
2013-09-18 20:04:00,57.7,46.5,0.00,WSW,238,0.0,0.0,66,0.00,,---,0.00,VWS V13.01,2013-09-19 00:04:00,
2013-09-18 20:10:00,57.4,46.5,0.00,WSW,238,0.0,0.0,67,0.00,,---,0.00,VWS V13.01,2013-09-19 00:10:00,
2013-09-18 20:15:00,57.0,46.2,0.00,WSW,238,0.0,0.0,67,0.00,,---,0.00,VWS V13.01,2013-09-19 00:15:00,
2013-09-18 20:20:00,56.7,46.2,0.00,WSW,239,0.0,0.0,68,0.00,,---,0.00,VWS V13.01,2013-09-19 00:20:00,
2013-09-18 20:25:00,56.5,46.5,0.00,WSW,238,0.0,0.0,69,0.00,,---,0.00,VWS V13.01,2013-09-19 00:25:00,
2013-09-18 20:30:00,56.3,46.7,0.00,WSW,238,0.0,0.0,70,0.00,,---,0.00,VWS V13.01,2013-09-19 00:30:00,
2013-09-18 20:35:00,55.9,46.7,0.00,WSW,239,0.0,0.0,71,0.00,,---,0.00,VWS V13.01,2013-09-19 00:35:00,
2013-09-18 20:40:00,55.8,46.9,0.00,WSW,238,0.0,0.0,72,0.00,,---,0.00,VWS V13.01,2013-09-19 00:40:00,
2013-09-18 20:45:00,55.8,47.2,0.00,WSW,238,0.0,0.0,73,0.00,,---,0.00,VWS V13.01,2013-09-19 00:45:00,
2013-09-18 20:50:00,55.4,46.9,0.00,WSW,238,0.0,0.0,73,0.00,,---,0.00,VWS V13.01,2013-09-19 00:50:00,
2013-09-18 20:56:00,55.2,47.5,0.00,WSW,238,0.0,0.0,75,0.00,,---,0.00,VWS V13.01,2013-09-19 00:56:00,
2013-09-18 21:01:00,54.9,47.1,0.00,WSW,238,0.0,0.0,75,0.00,,---,0.00,VWS V13.01,2013-09-19 01:01:00,
2013-09-18 21:06:00,54.7,46.9,0.00,WSW,238,0.0,0.0,75,0.00,,---,0.00,VWS V13.01,2013-09-19 01:06:00,
2013-09-18 21:11:00,54.5,47.1,0.00,WSW,238,0.0,0.0,76,0.00,,---,0.00,VWS V13.01,2013-09-19 01:11:00,
2013-09-18 21:16:00,54.3,46.9,0.00,WSW,238,0.0,0.0,76,0.00,,---,0.00,VWS V13.01,2013-09-19 01:16:00,
2013-09-18 21:21:00,54.3,47.6,0.00,WSW,239,0.0,0.0,78,0.00,,---,0.00,VWS V13.01,2013-09-19 01:21:00,
2013-09-18 21:26:00,54.1,47.4,0.00,WSW,239,0.0,0.0,78,0.00,,---,0.00,VWS V13.01,2013-09-19 01:26:00,
2013-09-18 21:31:00,54.0,47.6,0.00,WSW,239,0.0,0.0,79,0.00,,---,0.00,VWS V13.01,2013-09-19 01:31:00,
2013-09-18 21:36:00,54.0,47.9,0.00,WSW,239,0.0,0.0,80,0.00,,---,0.00,VWS V13.01,2013-09-19 01:36:00,
2013-09-18 21:41:00,53.6,47.9,0.00,WSW,239,0.0,0.0,81,0.00,,---,0.00,VWS V13.01,2013-09-19 01:41:00,
2013-09-18 21:46:00,53.4,48.1,0.00,WSW,239,0.0,0.0,82,0.00,,---,0.00,VWS V13.01,2013-09-19 01:46:00,
2013-09-18 21:51:00,53.2,47.9,0.00,WSW,239,0.0,0.0,82,0.00,,---,0.00,VWS V13.01,2013-09-19 01:51:00,
2013-09-18 21:56:00,53.1,47.7,0.00,WSW,239,0.0,0.0,82,0.00,,---,0.00,VWS V13.01,2013-09-19 01:56:00,
2013-09-18 22:01:00,52.7,47.4,0.00,WSW,239,0.0,0.0,82,0.00,,---,0.00,VWS V13.01,2013-09-19 02:01:00,
2013-09-18 22:06:00,52.5,47.5,0.00,WSW,239,0.0,0.0,83,0.00,,---,0.00,VWS V13.01,2013-09-19 02:06:00,
2013-09-18 22:11:00,52.3,47.3,0.00,WSW,239,0.0,0.0,83,0.00,,---,0.00,VWS V13.01,2013-09-19 02:11:00,
2013-09-18 22:16:00,52.2,47.2,0.00,WSW,239,0.0,0.0,83,0.00,,---,0.00,VWS V13.01,2013-09-19 02:16:00,
2013-09-18 22:21:00,52.0,47.0,0.00,WSW,239,0.0,0.0,83,0.00,,---,0.00,VWS V13.01,2013-09-19 02:21:00,
2013-09-18 22:26:00,51.8,46.8,0.00,WSW,239,0.0,0.0,83,0.00,,---,0.00,VWS V13.01,2013-09-19 02:26:00,
2013-09-18 22:31:00,51.6,47.0,0.00,WSW,239,0.0,0.0,84,0.00,,---,0.00,VWS V13.01,2013-09-19 02:31:00,
2013-09-18 22:36:00,51.6,47.0,0.00,WSW,239,0.0,0.0,84,0.00,,---,0.00,VWS V13.01,2013-09-19 02:36:00,
2013-09-18 22:41:00,51.4,46.8,0.00,WSW,239,0.0,0.0,84,0.00,,---,0.00,VWS V13.01,2013-09-19 02:41:00,
2013-09-18 22:46:00,51.3,46.9,0.00,WSW,239,0.0,0.0,85,0.00,,---,0.00,VWS V13.01,2013-09-19 02:46:00,
2013-09-18 22:51:00,51.1,46.7,0.00,WSW,239,0.0,0.0,85,0.00,,---,0.00,VWS V13.01,2013-09-19 02:51:00,
2013-09-18 22:56:00,50.9,46.6,0.00,WSW,239,0.0,0.0,85,0.00,,---,0.00,VWS V13.01,2013-09-19 02:56:00,
2013-09-18 23:01:00,50.9,46.6,0.00,WSW,239,0.0,0.0,85,0.00,,---,0.00,VWS V13.01,2013-09-19 03:01:00,
2013-09-18 23:06:00,50.7,46.4,0.00,WSW,239,0.0,0.0,85,0.00,,---,0.00,VWS V13.01,2013-09-19 03:06:00,
2013-09-18 23:11:00,50.5,46.5,0.00,WSW,239,0.0,0.0,86,0.00,,---,0.00,VWS V13.01,2013-09-19 03:11:00,
2013-09-18 23:17:00,50.5,46.5,0.00,WSW,239,0.0,0.0,86,0.00,,---,0.00,VWS V13.01,2013-09-19 03:17:00,
2013-09-18 23:22:00,50.4,46.3,0.00,WSW,239,0.0,0.0,86,0.00,,---,0.00,VWS V13.01,2013-09-19 03:22:00,
2013-09-18 23:27:00,50.2,46.2,0.00,WSW,239,0.0,0.0,86,0.00,,---,0.00,VWS V13.01,2013-09-19 03:27:00,
2013-09-18 23:32:00,50.2,46.5,0.00,WSW,239,0.0,0.0,87,0.00,,---,0.00,VWS V13.01,2013-09-19 03:32:00,
2013-09-18 23:37:00,50.2,46.5,0.00,WSW,239,0.0,0.0,87,0.00,,---,0.00,VWS V13.01,2013-09-19 03:37:00,
2013-09-18 23:42:00,50.0,46.3,0.00,WSW,239,0.0,0.0,87,0.00,,---,0.00,VWS V13.01,2013-09-19 03:42:00,
2013-09-18 23:47:00,50.0,46.6,0.00,WSW,239,0.0,0.0,88,0.00,,---,0.00,VWS V13.01,2013-09-19 03:47:00,
2013-09-18 23:52:00,49.8,46.7,0.00,WSW,239,0.0,0.0,89,0.00,,---,0.00,VWS V13.01,2013-09-19 03:52:00,
2013-09-18 23:57:00,49.6,46.5,0.00,WSW,239,0.0,0.0,89,0.00,,---,0.00,VWS V13.01,2013-09-19 03:57:00,